Back to catalog

STARLINK-36049

AliveCommunicationsVLEO
NORAD 66805·PAYLOAD·🇺🇸 United States

Launched Dec 1, 2025 from Cape Canaveral Space Force Station

Loading…

Next Passes (next 24 hours)

TLE

FreshSource: CelesTrak SupGP

Epoch: Sep 14, 2026, 15:23 UTC

1 66805C 25278Q   26257.64145833  .00032981  00000+0  11957-2 0  2579
2 66805  43.0010 127.5644 0001339 265.2620  86.4218 15.27531913    10

Track STARLINK-36049 in real time with AllMySat

Download on the App Store